Time,TemperatureF,DewpointF,PressureIn,WindDirection,WindDirectionDegrees,WindSpeedMPH,WindSpeedGustMPH,Humidity,HourlyPrecipIn,Conditions,Clouds,dailyrainin,SolarRadiationWatts/m^2,SoftwareType,DateUTC
2013-03-11 00:00:00,40.0,34.9,30.12,West,275,0.0,0.0,82,0.00,,,0.00,0,Wunderground v.1.15,2013-03-11 05:00:00,
2013-03-11 00:10:00,39.3,35.2,30.12,West,275,0.0,0.0,85,0.00,,,0.00,0,Wunderground v.1.15,2013-03-11 05:10:00,
2013-03-11 00:15:00,38.9,34.8,30.12,West,275,0.0,0.0,85,0.00,,,0.00,0,Wunderground v.1.15,2013-03-11 05:15:00,
2013-03-11 00:20:00,38.7,34.6,30.12,West,275,0.0,0.0,85,0.00,,,0.00,0,Wunderground v.1.15,2013-03-11 05:20:00,
2013-03-11 00:25:00,38.4,34.3,30.12,West,275,0.0,0.0,85,0.00,,,0.00,0,Wunderground v.1.15,2013-03-11 05:25:00,
2013-03-11 00:30:00,38.1,34.3,30.12,West,275,0.0,0.0,86,0.00,,,0.00,0,Wunderground v.1.15,2013-03-11 05:30:00,
2013-03-11 00:35:00,37.8,34.3,30.12,West,275,0.0,0.0,87,0.00,,,0.00,0,Wunderground v.1.15,2013-03-11 05:35:00,
2013-03-11 00:45:00,37.3,33.8,30.13,West,275,0.0,0.0,87,0.00,,,0.00,0,Wunderground v.1.15,2013-03-11 05:45:00,
2013-03-11 00:50:00,37.1,33.6,30.12,West,275,0.0,0.0,87,0.00,,,0.00,0,Wunderground v.1.15,2013-03-11 05:50:00,
2013-03-11 00:55:00,36.9,33.4,30.12,West,275,0.0,0.0,87,0.00,,,0.00,0,Wunderground v.1.15,2013-03-11 05:55:00,
2013-03-11 01:00:00,36.4,33.2,30.13,West,275,0.0,0.0,88,0.00,,,0.00,0,Wunderground v.1.15,2013-03-11 06:00:00,
2013-03-11 01:05:00,36.1,32.9,30.13,West,275,0.0,0.0,88,0.00,,,0.00,0,Wunderground v.1.15,2013-03-11 06:05:00,
2013-03-11 01:15:00,35.6,32.7,30.13,West,275,0.0,0.0,89,0.00,,,0.00,0,Wunderground v.1.15,2013-03-11 06:15:00,
2013-03-11 01:20:00,35.4,32.8,30.13,West,275,0.0,0.0,90,0.00,,,0.00,0,Wunderground v.1.15,2013-03-11 06:20:00,
2013-03-11 01:25:00,35.3,32.7,30.13,West,275,0.0,0.0,90,0.00,,,0.00,0,Wunderground v.1.15,2013-03-11 06:25:00,
2013-03-11 01:30:00,35.2,32.6,30.12,West,275,0.0,0.0,90,0.00,,,0.00,0,Wunderground v.1.15,2013-03-11 06:30:00,
2013-03-11 01:35:00,34.9,32.3,30.13,West,275,0.0,0.0,90,0.00,,,0.00,0,Wunderground v.1.15,2013-03-11 06:35:00,
2013-03-11 01:45:00,34.4,32.0,30.13,West,275,0.0,0.0,91,0.00,,,0.00,0,Wunderground v.1.15,2013-03-11 06:45:00,
2013-03-11 01:50:00,34.2,31.8,30.13,West,275,0.0,0.0,91,0.00,,,0.00,0,Wunderground v.1.15,2013-03-11 06:50:00,
2013-03-11 02:00:00,33.9,31.6,30.13,West,275,0.0,0.0,91,0.00,,,0.00,0,Wunderground v.1.15,2013-03-11 07:00:00,
2013-03-11 02:05:00,33.7,31.4,30.12,West,275,0.0,0.0,91,0.00,,,0.00,0,Wunderground v.1.15,2013-03-11 07:05:00,
2013-03-11 02:10:00,33.5,31.4,30.13,West,275,0.0,0.0,92,0.00,,,0.00,0,Wunderground v.1.15,2013-03-11 07:10:00,
2013-03-11 02:20:00,33.1,30.8,30.13,West,275,0.0,0.0,91,0.00,,,0.00,0,Wunderground v.1.15,2013-03-11 07:20:00,
2013-03-11 02:25:00,32.9,30.8,30.12,West,275,0.0,0.0,92,0.00,,,0.00,0,Wunderground v.1.15,2013-03-11 07:25:00,
2013-03-11 02:30:00,32.7,30.6,30.12,West,275,0.0,0.0,92,0.00,,,0.00,0,Wunderground v.1.15,2013-03-11 07:30:00,
2013-03-11 02:35:00,32.6,30.5,30.12,West,275,0.0,0.0,92,0.00,,,0.00,0,Wunderground v.1.15,2013-03-11 07:35:00,
2013-03-11 02:40:00,32.4,30.3,30.12,West,275,0.0,0.0,92,0.00,,,0.00,0,Wunderground v.1.15,2013-03-11 07:40:00,
2013-03-11 02:45:00,32.1,30.0,30.12,West,275,0.0,0.0,92,0.00,,,0.00,0,Wunderground v.1.15,2013-03-11 07:45:00,
2013-03-11 02:55:00,32.2,30.4,30.12,West,275,0.0,0.0,93,0.00,,,0.00,0,Wunderground v.1.15,2013-03-11 07:55:00,
2013-03-11 03:00:00,32.2,30.4,30.12,West,275,0.0,0.0,93,0.00,,,0.00,0,Wunderground v.1.15,2013-03-11 08:00:00,
2013-03-11 03:05:00,32.0,30.2,30.12,West,275,0.0,0.0,93,0.00,,,0.00,0,Wunderground v.1.15,2013-03-11 08:05:00,
2013-03-11 03:10:00,31.7,29.6,30.11,West,275,0.0,0.0,92,0.00,,,0.00,0,Wunderground v.1.15,2013-03-11 08:10:00,
2013-03-11 03:15:00,31.6,29.8,30.12,West,275,0.0,0.0,93,0.00,,,0.00,0,Wunderground v.1.15,2013-03-11 08:15:00,
2013-03-11 03:20:00,31.6,29.8,30.12,West,275,0.0,0.0,93,0.00,,,0.00,0,Wunderground v.1.15,2013-03-11 08:20:00,
2013-03-11 03:25:00,31.5,29.7,30.12,West,275,0.0,0.0,93,0.00,,,0.00,0,Wunderground v.1.15,2013-03-11 08:25:00,
2013-03-11 03:30:00,31.4,29.6,30.11,West,275,0.0,0.0,93,0.00,,,0.00,0,Wunderground v.1.15,2013-03-11 08:30:00,
2013-03-11 03:35:00,31.1,29.3,30.11,West,275,0.0,0.0,93,0.00,,,0.00,0,Wunderground v.1.15,2013-03-11 08:35:00,
2013-03-11 03:40:00,30.9,29.1,30.11,West,275,0.0,0.0,93,0.00,,,0.00,0,Wunderground v.1.15,2013-03-11 08:40:00,
2013-03-11 03:45:00,30.8,29.0,30.11,West,275,0.0,0.0,93,0.00,,,0.00,0,Wunderground v.1.15,2013-03-11 08:45:00,
2013-03-11 03:50:00,30.8,29.0,30.11,West,275,0.0,0.0,93,0.00,,,0.00,0,Wunderground v.1.15,2013-03-11 08:50:00,
2013-03-11 03:55:00,30.7,28.9,30.11,West,275,0.0,0.0,93,0.00,,,0.00,0,Wunderground v.1.15,2013-03-11 08:55:00,
2013-03-11 04:00:00,30.6,28.8,30.11,West,275,0.0,0.0,93,0.00,,,0.00,0,Wunderground v.1.15,2013-03-11 09:00:00,
2013-03-11 04:05:00,30.6,29.1,30.11,West,275,0.0,0.0,94,0.00,,,0.00,0,Wunderground v.1.15,2013-03-11 09:05:00,
2013-03-11 04:10:00,30.6,29.1,30.11,West,275,0.0,0.0,94,0.00,,,0.00,0,Wunderground v.1.15,2013-03-11 09:10:00,
2013-03-11 04:15:00,30.5,29.0,30.11,West,275,0.0,0.0,94,0.00,,,0.00,0,Wunderground v.1.15,2013-03-11 09:15:00,
2013-03-11 04:25:00,30.4,28.9,30.11,West,275,0.0,0.0,94,0.00,,,0.00,0,Wunderground v.1.15,2013-03-11 09:25:00,
2013-03-11 04:30:00,30.4,28.9,30.11,West,275,0.0,0.0,94,0.00,,,0.00,0,Wunderground v.1.15,2013-03-11 09:30:00,
2013-03-11 04:35:00,30.3,28.8,30.11,West,275,0.0,0.0,94,0.00,,,0.00,0,Wunderground v.1.15,2013-03-11 09:35:00,
2013-03-11 04:40:00,30.3,28.8,30.11,West,275,0.0,0.0,94,0.00,,,0.00,0,Wunderground v.1.15,2013-03-11 09:40:00,
2013-03-11 04:45:00,30.2,28.7,30.11,West,275,0.0,0.0,94,0.00,,,0.00,0,Wunderground v.1.15,2013-03-11 09:45:00,
2013-03-11 04:50:00,30.1,28.6,30.11,West,275,0.0,0.0,94,0.00,,,0.00,0,Wunderground v.1.15,2013-03-11 09:50:00,
2013-03-11 05:00:00,29.8,28.3,30.11,West,275,0.0,0.0,94,0.00,,,0.00,0,Wunderground v.1.15,2013-03-11 10:00:00,
2013-03-11 05:05:00,29.7,28.2,30.11,West,275,0.0,0.0,94,0.00,,,0.00,0,Wunderground v.1.15,2013-03-11 10:05:00,
2013-03-11 05:10:00,29.6,28.1,30.11,West,275,0.0,0.0,94,0.00,,,0.00,0,Wunderground v.1.15,2013-03-11 10:10:00,
2013-03-11 05:15:00,29.4,27.9,30.11,West,275,0.0,0.0,94,0.00,,,0.00,0,Wunderground v.1.15,2013-03-11 10:15:00,
2013-03-11 05:20:00,29.4,27.9,30.11,West,275,0.0,0.0,94,0.00,,,0.00,0,Wunderground v.1.15,2013-03-11 10:20:00,
2013-03-11 05:30:00,29.1,27.6,30.11,West,275,0.0,0.0,94,0.00,,,0.00,0,Wunderground v.1.15,2013-03-11 10:30:00,
2013-03-11 05:35:00,29.2,27.7,30.11,West,275,0.0,0.0,94,0.00,,,0.00,0,Wunderground v.1.15,2013-03-11 10:35:00,
2013-03-11 05:40:00,29.4,27.9,30.11,West,275,0.0,0.0,94,0.00,,,0.00,0,Wunderground v.1.15,2013-03-11 10:40:00,
2013-03-11 05:45:00,29.6,28.1,30.12,West,275,0.0,0.0,94,0.00,,,0.00,0,Wunderground v.1.15,2013-03-11 10:45:00,
2013-03-11 05:50:00,29.8,28.3,30.12,West,275,0.0,0.0,94,0.00,,,0.00,0,Wunderground v.1.15,2013-03-11 10:50:00,
2013-03-11 06:00:00,30.4,28.9,30.12,West,275,0.0,0.0,94,0.00,,,0.00,0,Wunderground v.1.15,2013-03-11 11:00:00,
2013-03-11 06:10:00,30.6,29.1,30.12,West,275,0.0,1.0,94,0.00,,,0.00,0,Wunderground v.1.15,2013-03-11 11:10:00,
2013-03-11 06:15:00,30.5,28.7,30.13,West,275,0.0,1.0,93,0.00,,,0.00,0,Wunderground v.1.15,2013-03-11 11:15:00,
2013-03-11 06:20:00,30.5,28.7,30.13,West,275,0.0,0.0,93,0.00,,,0.00,0,Wunderground v.1.15,2013-03-11 11:20:00,
2013-03-11 06:30:00,30.5,28.7,30.13,West,275,0.0,0.0,93,0.00,,,0.00,0,Wunderground v.1.15,2013-03-11 11:30:00,
2013-03-11 06:35:00,30.5,28.7,30.14,West,275,0.0,0.0,93,0.00,,,0.00,0,Wunderground v.1.15,2013-03-11 11:35:00,
2013-03-11 06:40:00,30.2,28.4,30.14,West,275,0.0,0.0,93,0.00,,,0.00,0,Wunderground v.1.15,2013-03-11 11:40:00,
2013-03-11 06:45:00,30.0,28.2,30.14,West,275,0.0,0.0,93,0.00,,,0.00,0,Wunderground v.1.15,2013-03-11 11:45:00,
2013-03-11 06:50:00,30.0,28.2,30.14,West,275,0.0,0.0,93,0.00,,,0.00,0,Wunderground v.1.15,2013-03-11 11:50:00,
2013-03-11 07:00:00,30.0,28.2,30.14,West,275,0.0,0.0,93,0.00,,,0.00,0,Wunderground v.1.15,2013-03-11 12:00:00,
2013-03-11 07:05:00,30.1,28.3,30.14,West,275,0.0,0.0,93,0.00,,,0.00,0,Wunderground v.1.15,2013-03-11 12:05:00,
2013-03-11 07:10:00,30.2,28.2,30.14,West,275,0.0,1.0,92,0.00,,,0.00,0,Wunderground v.1.15,2013-03-11 12:10:00,
2013-03-11 07:15:00,30.4,28.4,30.14,West,275,0.0,1.0,92,0.00,,,0.00,0,Wunderground v.1.15,2013-03-11 12:15:00,
2013-03-11 07:20:00,30.3,28.3,30.14,West,275,0.0,0.0,92,0.00,,,0.00,0,Wunderground v.1.15,2013-03-11 12:20:00,
2013-03-11 07:30:00,29.7,27.4,30.15,West,275,0.0,0.0,91,0.00,,,0.00,0,Wunderground v.1.15,2013-03-11 12:30:00,
2013-03-11 07:35:00,29.5,27.5,30.15,West,275,0.0,0.0,92,0.00,,,0.00,0,Wunderground v.1.15,2013-03-11 12:35:00,
2013-03-11 07:45:00,29.2,27.2,30.15,West,275,0.0,0.0,92,0.00,,,0.00,0,Wunderground v.1.15,2013-03-11 12:45:00,
2013-03-11 07:50:00,29.1,27.1,30.15,West,275,0.0,0.0,92,0.00,,,0.00,7,Wunderground v.1.15,2013-03-11 12:50:00,
2013-03-11 08:00:00,28.9,26.9,30.16,West,275,0.0,0.0,92,0.00,,,0.00,14,Wunderground v.1.15,2013-03-11 13:00:00,
2013-03-11 08:05:00,28.8,27.0,30.16,West,275,0.0,0.0,93,0.00,,,0.00,18,Wunderground v.1.15,2013-03-11 13:05:00,
2013-03-11 08:15:00,28.9,27.1,30.16,West,275,0.0,0.0,93,0.00,,,0.00,23,Wunderground v.1.15,2013-03-11 13:15:00,
2013-03-11 08:20:00,29.1,27.6,30.17,West,275,0.0,0.0,94,0.00,,,0.00,28,Wunderground v.1.15,2013-03-11 13:20:00,
2013-03-11 08:25:00,29.4,27.9,30.17,West,275,0.0,0.0,94,0.00,,,0.00,39,Wunderground v.1.15,2013-03-11 13:25:00,
2013-03-11 08:30:00,29.8,28.5,30.17,West,275,0.0,0.0,95,0.00,,,0.00,30,Wunderground v.1.15,2013-03-11 13:30:00,
2013-03-11 08:35:00,30.2,28.9,30.17,West,275,0.0,0.0,95,0.00,,,0.00,69,Wunderground v.1.15,2013-03-11 13:35:00,
2013-03-11 08:40:00,30.8,29.5,30.17,West,275,0.0,0.0,95,0.00,,,0.00,139,Wunderground v.1.15,2013-03-11 13:40:00,
2013-03-11 08:50:00,32.7,31.4,30.18,West,275,0.0,0.0,95,0.00,,,0.00,163,Wunderground v.1.15,2013-03-11 13:50:00,
2013-03-11 09:00:00,35.3,32.9,30.18,West,279,0.0,1.0,91,0.00,,,0.00,204,Wunderground v.1.15,2013-03-11 14:00:00,
2013-03-11 09:05:00,37.7,32.7,30.18,West,269,0.0,6.0,82,0.00,,,0.00,230,Wunderground v.1.15,2013-03-11 14:05:00,
2013-03-11 09:10:00,40.1,28.9,30.18,West,279,2.0,4.0,64,0.00,,,0.00,251,Wunderground v.1.15,2013-03-11 14:10:00,
2013-03-11 09:20:00,42.3,27.3,30.19,WSW,256,2.0,2.0,55,0.00,,,0.00,288,Wunderground v.1.15,2013-03-11 14:20:00,
2013-03-11 09:30:00,43.5,26.6,30.19,WNW,291,4.0,4.0,51,0.00,,,0.00,332,Wunderground v.1.15,2013-03-11 14:30:00,
2013-03-11 09:35:00,44.1,27.1,30.19,West,279,4.0,6.0,51,0.00,,,0.00,350,Wunderground v.1.15,2013-03-11 14:35:00,
2013-03-11 09:40:00,44.7,26.2,30.19,West,271,4.0,8.0,48,0.00,,,0.00,371,Wunderground v.1.15,2013-03-11 14:40:00,
2013-03-11 09:45:00,45.2,26.1,30.19,WNW,288,5.0,8.0,47,0.00,,,0.00,392,Wunderground v.1.15,2013-03-11 14:45:00,
2013-03-11 09:50:00,45.7,25.5,30.19,WNW,285,5.0,5.0,45,0.00,,,0.00,408,Wunderground v.1.15,2013-03-11 14:50:00,
2013-03-11 10:00:00,46.6,26.4,30.19,WSW,254,5.0,5.0,45,0.00,,,0.00,443,Wunderground v.1.15,2013-03-11 15:00:00,
2013-03-11 10:05:00,46.9,25.0,30.19,West,277,5.0,5.0,42,0.00,,,0.00,462,Wunderground v.1.15,2013-03-11 15:05:00,
2013-03-11 10:10:00,47.1,25.7,30.19,WSW,248,5.0,8.0,43,0.00,,,0.00,480,Wunderground v.1.15,2013-03-11 15:10:00,
2013-03-11 10:15:00,47.4,24.9,30.19,WNW,283,6.0,8.0,41,0.00,,,0.00,497,Wunderground v.1.15,2013-03-11 15:15:00,
2013-03-11 10:20:00,48.0,25.4,30.19,West,279,5.0,5.0,41,0.00,,,0.00,512,Wunderground v.1.15,2013-03-11 15:20:00,
2013-03-11 10:30:00,48.6,24.7,30.19,NW,305,7.0,7.0,39,0.00,,,0.00,545,Wunderground v.1.15,2013-03-11 15:30:00,
2013-03-11 10:40:00,49.9,24.0,30.19,WNW,285,4.0,4.0,36,0.00,,,0.00,585,Wunderground v.1.15,2013-03-11 15:40:00,
2013-03-11 10:45:00,49.6,22.3,30.19,West,265,6.0,6.0,34,0.00,,,0.00,598,Wunderground v.1.15,2013-03-11 15:45:00,
2013-03-11 10:50:00,50.2,24.9,30.19,North,355,5.0,5.0,37,0.00,,,0.00,613,Wunderground v.1.15,2013-03-11 15:50:00,
2013-03-11 11:00:00,50.4,22.3,30.19,NW,315,5.0,5.0,33,0.00,,,0.00,640,Wunderground v.1.15,2013-03-11 16:00:00,
2013-03-11 11:05:00,50.5,22.4,30.19,WNW,282,6.0,11.0,33,0.00,,,0.00,656,Wunderground v.1.15,2013-03-11 16:05:00,
2013-03-11 11:10:00,50.5,22.4,30.19,West,278,6.0,7.0,33,0.00,,,0.00,668,Wunderground v.1.15,2013-03-11 16:10:00,
2013-03-11 11:15:00,50.7,22.6,30.18,NW,314,6.0,7.0,33,0.00,,,0.00,686,Wunderground v.1.15,2013-03-11 16:15:00,
2013-03-11 11:20:00,51.1,22.2,30.18,WNW,288,6.0,6.0,32,0.00,,,0.00,700,Wunderground v.1.15,2013-03-11 16:20:00,
2013-03-11 11:30:00,51.8,24.3,30.18,WNW,300,5.0,5.0,34,0.00,,,0.00,722,Wunderground v.1.15,2013-03-11 16:30:00,
2013-03-11 11:40:00,52.0,21.5,30.18,WNW,293,6.0,8.0,30,0.00,,,0.00,745,Wunderground v.1.15,2013-03-11 16:40:00,
2013-03-11 11:45:00,52.4,22.6,30.18,WSW,252,6.0,8.0,31,0.00,,,0.00,756,Wunderground v.1.15,2013-03-11 16:45:00,
2013-03-11 11:50:00,52.7,22.1,30.18,WNW,285,5.0,8.0,30,0.00,,,0.00,765,Wunderground v.1.15,2013-03-11 16:50:00,
2013-03-11 12:00:00,53.0,23.9,30.18,NNW,327,5.0,6.0,32,0.00,,,0.00,784,Wunderground v.1.15,2013-03-11 17:00:00,
2013-03-11 12:10:00,52.9,23.0,30.17,West,272,6.0,6.0,31,0.00,,,0.00,803,Wunderground v.1.15,2013-03-11 17:10:00,
2013-03-11 12:20:00,53.6,23.7,30.17,WSW,258,4.0,6.0,31,0.00,,,0.00,817,Wunderground v.1.15,2013-03-11 17:20:00,
2013-03-11 12:25:00,54.5,22.0,30.17,West,271,4.0,6.0,28,0.00,,,0.00,830,Wunderground v.1.15,2013-03-11 17:25:00,
2013-03-11 12:30:00,55.2,21.8,30.17,West,264,4.0,11.0,27,0.00,,,0.00,837,Wunderground v.1.15,2013-03-11 17:30:00,
2013-03-11 12:40:00,55.4,23.6,30.16,NNW,331,5.0,5.0,29,0.00,,,0.00,849,Wunderground v.1.15,2013-03-11 17:40:00,
2013-03-11 12:45:00,55.2,23.5,30.16,WSW,250,5.0,5.0,29,0.00,,,0.00,853,Wunderground v.1.15,2013-03-11 17:45:00,
2013-03-11 12:50:00,55.9,25.7,30.16,WSW,244,6.0,6.0,31,0.00,,,0.00,858,Wunderground v.1.15,2013-03-11 17:50:00,
2013-03-11 12:55:00,56.6,23.0,30.16,SW,229,4.0,6.0,27,0.00,,,0.00,865,Wunderground v.1.15,2013-03-11 17:55:00,
2013-03-11 13:00:00,56.9,23.2,30.16,WNW,285,3.0,6.0,27,0.00,,,0.00,868,Wunderground v.1.15,2013-03-11 18:00:00,
2013-03-11 13:05:00,56.9,22.3,30.16,WNW,294,5.0,7.0,26,0.00,,,0.00,870,Wunderground v.1.15,2013-03-11 18:05:00,
2013-03-11 13:15:00,56.9,21.4,30.15,WNW,300,7.0,8.0,25,0.00,,,0.00,879,Wunderground v.1.15,2013-03-11 18:15:00,
2013-03-11 13:20:00,57.1,20.6,30.15,WSW,258,7.0,7.0,24,0.00,,,0.00,881,Wunderground v.1.15,2013-03-11 18:20:00,
2013-03-11 13:25:00,57.3,19.8,30.15,West,281,7.0,7.0,23,0.00,,,0.00,882,Wunderground v.1.15,2013-03-11 18:25:00,
2013-03-11 13:35:00,58.6,20.9,30.14,WNW,289,5.0,10.0,23,0.00,,,0.00,882,Wunderground v.1.15,2013-03-11 18:35:00,
2013-03-11 13:45:00,58.6,21.9,30.13,NW,315,8.0,10.0,24,0.00,,,0.00,882,Wunderground v.1.15,2013-03-11 18:45:00,
2013-03-11 13:50:00,58.9,23.1,30.13,SW,215,7.0,8.0,25,0.00,,,0.00,886,Wunderground v.1.15,2013-03-11 18:50:00,
2013-03-11 13:55:00,59.0,21.2,30.13,WSW,252,6.0,11.0,23,0.00,,,0.00,881,Wunderground v.1.15,2013-03-11 18:55:00,
2013-03-11 14:05:00,59.8,20.8,30.12,WSW,257,5.0,13.0,22,0.00,,,0.00,875,Wunderground v.1.15,2013-03-11 19:05:00,
2013-03-11 14:10:00,59.8,21.9,30.12,WSW,248,5.0,10.0,23,0.00,,,0.00,874,Wunderground v.1.15,2013-03-11 19:10:00,
2013-03-11 14:20:00,60.7,21.6,30.11,WSW,253,5.0,5.0,22,0.00,,,0.00,867,Wunderground v.1.15,2013-03-11 19:20:00,
2013-03-11 14:30:00,61.0,24.9,30.10,West,275,5.0,5.0,25,0.00,,,0.00,858,Wunderground v.1.15,2013-03-11 19:30:00,
2013-03-11 14:35:00,61.0,23.9,30.10,NW,325,5.0,5.0,24,0.00,,,0.00,853,Wunderground v.1.15,2013-03-11 19:35:00,
2013-03-11 14:40:00,60.9,23.8,30.10,West,262,6.0,6.0,24,0.00,,,0.00,847,Wunderground v.1.15,2013-03-11 19:40:00,
2013-03-11 14:50:00,62.1,24.8,30.09,SW,221,3.0,6.0,24,0.00,,,0.00,835,Wunderground v.1.15,2013-03-11 19:50:00,
2013-03-11 14:55:00,62.5,23.1,30.09,WNW,288,3.0,6.0,22,0.00,,,0.00,826,Wunderground v.1.15,2013-03-11 19:55:00,
2013-03-11 15:05:00,62.9,23.4,30.08,WNW,283,4.0,4.0,22,0.00,,,0.00,814,Wunderground v.1.15,2013-03-11 20:05:00,
2013-03-11 15:10:00,63.0,24.6,30.08,NW,312,4.0,4.0,23,0.00,,,0.00,805,Wunderground v.1.15,2013-03-11 20:10:00,
2013-03-11 15:15:00,63.1,28.5,30.08,NNW,339,3.0,4.0,27,0.00,,,0.00,800,Wunderground v.1.15,2013-03-11 20:15:00,
2013-03-11 15:20:00,63.8,28.2,30.08,West,276,2.0,2.0,26,0.00,,,0.00,788,Wunderground v.1.15,2013-03-11 20:20:00,
2013-03-11 15:25:00,64.0,24.4,30.08,West,265,3.0,3.0,22,0.00,,,0.00,777,Wunderground v.1.15,2013-03-11 20:25:00,
2013-03-11 15:30:00,64.0,26.4,30.07,West,277,4.0,6.0,24,0.00,,,0.00,770,Wunderground v.1.15,2013-03-11 20:30:00,
2013-03-11 15:35:00,63.9,26.4,30.07,NW,326,5.0,6.0,24,0.00,,,0.00,759,Wunderground v.1.15,2013-03-11 20:35:00,
2013-03-11 15:45:00,63.7,26.2,30.06,West,261,3.0,5.0,24,0.00,,,0.00,737,Wunderground v.1.15,2013-03-11 20:45:00,
2013-03-11 15:50:00,64.1,25.5,30.06,WSW,253,5.0,7.0,23,0.00,,,0.00,726,Wunderground v.1.15,2013-03-11 20:50:00,
2013-03-11 15:55:00,64.3,24.6,30.06,NW,324,4.0,7.0,22,0.00,,,0.00,714,Wunderground v.1.15,2013-03-11 20:55:00,
2013-03-11 16:00:00,64.7,28.0,30.05,WSW,250,3.0,5.0,25,0.00,,,0.00,701,Wunderground v.1.15,2013-03-11 21:00:00,
2013-03-11 16:05:00,65.2,26.4,30.05,West,262,3.0,7.0,23,0.00,,,0.00,689,Wunderground v.1.15,2013-03-11 21:05:00,
2013-03-11 16:10:00,65.6,27.8,30.05,West,279,3.0,7.0,24,0.00,,,0.00,675,Wunderground v.1.15,2013-03-11 21:10:00,
2013-03-11 16:15:00,65.6,27.8,30.05,WNW,299,3.0,7.0,24,0.00,,,0.00,663,Wunderground v.1.15,2013-03-11 21:15:00,
2013-03-11 16:20:00,65.7,26.9,30.05,WNW,296,4.0,5.0,23,0.00,,,0.00,650,Wunderground v.1.15,2013-03-11 21:20:00,
2013-03-11 16:30:00,66.0,26.0,30.04,WSW,258,5.0,7.0,22,0.00,,,0.00,621,Wunderground v.1.15,2013-03-11 21:30:00,
2013-03-11 16:35:00,66.2,27.3,30.04,West,270,4.0,7.0,23,0.00,,,0.00,606,Wunderground v.1.15,2013-03-11 21:35:00,
2013-03-11 16:45:00,66.5,27.5,30.04,West,264,3.0,3.0,23,0.00,,,0.00,577,Wunderground v.1.15,2013-03-11 21:45:00,
2013-03-11 16:50:00,66.1,27.2,30.03,SW,234,4.0,4.0,23,0.00,,,0.00,559,Wunderground v.1.15,2013-03-11 21:50:00,
2013-03-11 17:00:00,66.7,26.6,30.03,West,259,3.0,3.0,22,0.00,,,0.00,522,Wunderground v.1.15,2013-03-11 22:00:00,
2013-03-11 17:05:00,66.7,26.6,30.03,WSW,238,3.0,4.0,22,0.00,,,0.00,508,Wunderground v.1.15,2013-03-11 22:05:00,
2013-03-11 17:15:00,67.0,27.9,30.03,WSW,240,2.0,5.0,23,0.00,,,0.00,475,Wunderground v.1.15,2013-03-11 22:15:00,
2013-03-11 17:20:00,67.4,27.2,30.02,West,274,2.0,9.0,22,0.00,,,0.00,459,Wunderground v.1.15,2013-03-11 22:20:00,
2013-03-11 17:25:00,67.4,26.1,30.02,SW,228,3.0,9.0,21,0.00,,,0.00,441,Wunderground v.1.15,2013-03-11 22:25:00,
2013-03-11 17:30:00,67.3,26.0,30.02,WNW,294,3.0,8.0,21,0.00,,,0.00,424,Wunderground v.1.15,2013-03-11 22:30:00,
2013-03-11 17:40:00,67.0,26.9,30.02,West,267,3.0,3.0,22,0.00,,,0.00,385,Wunderground v.1.15,2013-03-11 22:40:00,
2013-03-11 17:45:00,66.9,25.7,30.02,West,264,3.0,3.0,21,0.00,,,0.00,366,Wunderground v.1.15,2013-03-11 22:45:00,
2013-03-11 17:55:00,67.0,27.9,30.02,West,262,2.0,2.0,23,0.00,,,0.00,332,Wunderground v.1.15,2013-03-11 22:55:00,
2013-03-11 18:00:00,67.0,27.9,30.02,West,279,2.0,2.0,23,0.00,,,0.00,311,Wunderground v.1.15,2013-03-11 23:00:00,
2013-03-11 18:10:00,66.8,27.8,30.02,WNW,296,3.0,5.0,23,0.00,,,0.00,272,Wunderground v.1.15,2013-03-11 23:10:00,
2013-03-11 18:15:00,66.4,27.4,30.02,West,267,3.0,7.0,23,0.00,,,0.00,253,Wunderground v.1.15,2013-03-11 23:15:00,
2013-03-11 18:20:00,66.1,27.2,30.02,WNW,300,4.0,4.0,23,0.00,,,0.00,234,Wunderground v.1.15,2013-03-11 23:20:00,
2013-03-11 18:30:00,66.0,28.1,30.02,WNW,286,2.0,2.0,24,0.00,,,0.00,193,Wunderground v.1.15,2013-03-11 23:30:00,
2013-03-11 18:35:00,65.7,28.9,30.02,WNW,292,2.0,2.0,25,0.00,,,0.00,169,Wunderground v.1.15,2013-03-11 23:35:00,
2013-03-11 18:45:00,65.4,28.6,30.02,NW,317,2.0,2.0,25,0.00,,,0.00,125,Wunderground v.1.15,2013-03-11 23:45:00,
2013-03-11 18:50:00,64.9,28.2,30.02,NW,306,2.0,4.0,25,0.00,,,0.00,90,Wunderground v.1.15,2013-03-11 23:50:00,
2013-03-11 18:55:00,64.7,27.0,30.02,West,277,2.0,4.0,24,0.00,,,0.00,81,Wunderground v.1.15,2013-03-11 23:55:00,
2013-03-11 19:00:00,64.4,28.7,30.02,West,279,1.0,1.0,26,0.00,,,0.00,69,Wunderground v.1.15,2013-03-12 00:00:00,
2013-03-11 19:05:00,63.7,30.8,30.03,West,279,1.0,1.0,29,0.00,,,0.00,25,Wunderground v.1.15,2013-03-12 00:05:00,
2013-03-11 19:15:00,62.2,32.0,30.03,West,279,0.0,0.0,32,0.00,,,0.00,19,Wunderground v.1.15,2013-03-12 00:15:00,
2013-03-11 19:20:00,61.4,31.3,30.03,West,279,0.0,0.0,32,0.00,,,0.00,16,Wunderground v.1.15,2013-03-12 00:20:00,
2013-03-11 19:25:00,60.8,31.5,30.03,West,279,0.0,0.0,33,0.00,,,0.00,14,Wunderground v.1.15,2013-03-12 00:25:00,
2013-03-11 19:30:00,60.2,31.7,30.03,West,279,0.0,0.0,34,0.00,,,0.00,11,Wunderground v.1.15,2013-03-12 00:30:00,
2013-03-11 19:35:00,59.5,31.8,30.03,West,279,0.0,0.0,35,0.00,,,0.00,7,Wunderground v.1.15,2013-03-12 00:35:00,
2013-03-11 19:45:00,58.1,31.9,30.04,West,279,0.0,0.0,37,0.00,,,0.00,0,Wunderground v.1.15,2013-03-12 00:45:00,
2013-03-11 19:50:00,57.5,32.1,30.03,West,279,0.0,0.0,38,0.00,,,0.00,0,Wunderground v.1.15,2013-03-12 00:50:00,
2013-03-11 19:55:00,56.9,32.8,30.04,West,279,0.0,0.0,40,0.00,,,0.00,0,Wunderground v.1.15,2013-03-12 00:55:00,
2013-03-11 20:00:00,56.4,32.4,30.04,West,279,0.0,0.0,40,0.00,,,0.00,0,Wunderground v.1.15,2013-03-12 01:00:00,
2013-03-11 20:05:00,55.8,33.6,30.04,West,279,0.0,0.0,43,0.00,,,0.00,0,Wunderground v.1.15,2013-03-12 01:05:00,
2013-03-11 20:10:00,54.9,33.9,30.04,West,279,0.0,0.0,45,0.00,,,0.00,0,Wunderground v.1.15,2013-03-12 01:10:00,
2013-03-11 20:20:00,53.2,35.5,30.04,West,279,0.0,0.0,51,0.00,,,0.00,0,Wunderground v.1.15,2013-03-12 01:20:00,
2013-03-11 20:25:00,52.0,35.4,30.05,West,279,0.0,0.0,53,0.00,,,0.00,0,Wunderground v.1.15,2013-03-12 01:25:00,
2013-03-11 20:30:00,51.2,36.0,30.05,West,279,0.0,0.0,56,0.00,,,0.00,0,Wunderground v.1.15,2013-03-12 01:30:00,
2013-03-11 20:35:00,50.3,36.5,30.05,West,279,0.0,0.0,59,0.00,,,0.00,0,Wunderground v.1.15,2013-03-12 01:35:00,
2013-03-11 20:40:00,49.3,36.0,30.05,West,279,0.0,0.0,60,0.00,,,0.00,0,Wunderground v.1.15,2013-03-12 01:40:00,
2013-03-11 20:50:00,48.5,36.1,30.05,West,279,0.0,0.0,62,0.00,,,0.00,0,Wunderground v.1.15,2013-03-12 01:50:00,
2013-03-11 21:00:00,47.5,35.9,30.05,West,279,0.0,0.0,64,0.00,,,0.00,0,Wunderground v.1.15,2013-03-12 02:00:00,
2013-03-11 21:05:00,47.0,36.2,30.05,West,279,0.0,0.0,66,0.00,,,0.00,0,Wunderground v.1.15,2013-03-12 02:05:00,
2013-03-11 21:10:00,46.6,36.2,30.05,West,279,0.0,0.0,67,0.00,,,0.00,0,Wunderground v.1.15,2013-03-12 02:10:00,
2013-03-11 21:15:00,46.2,36.2,30.06,West,279,0.0,0.0,68,0.00,,,0.00,0,Wunderground v.1.15,2013-03-12 02:15:00,
2013-03-11 21:20:00,45.6,36.0,30.06,West,279,0.0,0.0,69,0.00,,,0.00,0,Wunderground v.1.15,2013-03-12 02:20:00,
2013-03-11 21:30:00,44.8,36.3,30.06,West,279,0.0,0.0,72,0.00,,,0.00,0,Wunderground v.1.15,2013-03-12 02:30:00,
2013-03-11 21:35:00,44.3,36.2,30.06,West,279,0.0,0.0,73,0.00,,,0.00,0,Wunderground v.1.15,2013-03-12 02:35:00,
2013-03-11 21:40:00,43.7,36.0,30.06,West,279,0.0,0.0,74,0.00,,,0.00,0,Wunderground v.1.15,2013-03-12 02:40:00,
2013-03-11 21:45:00,43.2,35.8,30.07,West,279,0.0,0.0,75,0.00,,,0.00,0,Wunderground v.1.15,2013-03-12 02:45:00,
2013-03-11 21:50:00,42.8,35.8,30.07,West,279,0.0,0.0,76,0.00,,,0.00,0,Wunderground v.1.15,2013-03-12 02:50:00,
2013-03-11 22:00:00,42.3,35.9,30.07,West,279,0.0,0.0,78,0.00,,,0.00,0,Wunderground v.1.15,2013-03-12 03:00:00,
2013-03-11 22:05:00,41.7,35.7,30.07,West,279,0.0,0.0,79,0.00,,,0.00,0,Wunderground v.1.15,2013-03-12 03:05:00,
2013-03-11 22:10:00,41.3,35.3,30.07,West,279,0.0,0.0,79,0.00,,,0.00,0,Wunderground v.1.15,2013-03-12 03:10:00,
2013-03-11 22:15:00,41.0,35.3,30.07,West,279,0.0,0.0,80,0.00,,,0.00,0,Wunderground v.1.15,2013-03-12 03:15:00,
2013-03-11 22:20:00,40.7,35.0,30.08,West,279,0.0,0.0,80,0.00,,,0.00,0,Wunderground v.1.15,2013-03-12 03:20:00,
2013-03-11 22:30:00,40.3,34.9,30.08,West,279,0.0,0.0,81,0.00,,,0.00,0,Wunderground v.1.15,2013-03-12 03:30:00,
2013-03-11 22:40:00,39.7,34.7,30.08,West,279,0.0,0.0,82,0.00,,,0.00,0,Wunderground v.1.15,2013-03-12 03:40:00,
2013-03-11 22:45:00,39.5,34.8,30.08,West,279,0.0,0.0,83,0.00,,,0.00,0,Wunderground v.1.15,2013-03-12 03:45:00,
2013-03-11 22:50:00,39.3,34.6,30.08,West,279,0.0,0.0,83,0.00,,,0.00,0,Wunderground v.1.15,2013-03-12 03:50:00,
2013-03-11 22:55:00,39.1,34.7,30.08,West,279,0.0,0.0,84,0.00,,,0.00,0,Wunderground v.1.15,2013-03-12 03:55:00,
2013-03-11 23:00:00,38.8,34.4,30.08,West,279,0.0,0.0,84,0.00,,,0.00,0,Wunderground v.1.15,2013-03-12 04:00:00,
2013-03-11 23:05:00,38.4,34.0,30.09,West,279,0.0,0.0,84,0.00,,,0.00,0,Wunderground v.1.15,2013-03-12 04:05:00,
2013-03-11 23:10:00,38.3,34.2,30.09,West,279,0.0,0.0,85,0.00,,,0.00,0,Wunderground v.1.15,2013-03-12 04:10:00,
2013-03-11 23:15:00,38.1,34.0,30.09,West,279,0.0,0.0,85,0.00,,,0.00,0,Wunderground v.1.15,2013-03-12 04:15:00,
2013-03-11 23:25:00,37.7,33.9,30.09,West,279,0.0,0.0,86,0.00,,,0.00,0,Wunderground v.1.15,2013-03-12 04:25:00,
2013-03-11 23:30:00,37.5,33.7,30.09,West,279,0.0,0.0,86,0.00,,,0.00,0,Wunderground v.1.15,2013-03-12 04:30:00,
2013-03-11 23:35:00,37.3,33.5,30.09,West,279,0.0,0.0,86,0.00,,,0.00,0,Wunderground v.1.15,2013-03-12 04:35:00,
2013-03-11 23:40:00,37.1,33.6,30.09,West,279,0.0,0.0,87,0.00,,,0.00,0,Wunderground v.1.15,2013-03-12 04:40:00,
2013-03-11 23:45:00,37.0,33.5,30.09,West,279,0.0,0.0,87,0.00,,,0.00,0,Wunderground v.1.15,2013-03-12 04:45:00,
2013-03-11 23:50:00,36.9,33.4,30.09,West,279,0.0,0.0,87,0.00,,,0.00,0,Wunderground v.1.15,2013-03-12 04:50:00,
2013-03-11 23:55:00,36.7,33.2,30.09,West,279,0.0,0.0,87,0.00,,,0.00,0,Wunderground v.1.15,2013-03-12 04:55:00,